Date String (YYYY-MM-DD hh:mm:ss) UTC,Instrument flags,Ambient pressure (hPa),Sample flow (lpm),Bypass flow (lpm),Sample temperature (°C),Ambient temperature (°C),ASC tube jacket temperature (°C),LED temperature (°C),Box temperature (°C),Sample RH (%),Span deviation,Mass concentration (μg/m³),Mass concentration (μg/m³),Mass concentration (μg/m³)
DateTimeUTC,F1_M11,P_M11,Q1_M11,Q2_M11,T1_M11,T2_M11,T3_M11,T4_M11,T5_M11,U1_M11,ZSPAN_M11,X2_M11,X0_M11,X1_M11
2021-10-27 11:00:00,,0821.3,5.00,0.00,23.6,22.7,00.0,32.7,25.4,10.0,0000.0,0001.00,0003.57,0000.73
2021-10-27 11:01:00,,0821.3,4.99,0.00,23.6,22.8,00.0,32.7,25.5,10.2,0000.0,0001.00,0003.40,0000.74
2021-10-27 11:02:00,,0821.4,5.00,0.00,23.6,22.8,00.0,32.7,25.5,10.3,0000.0,0001.00,0003.35,0000.74
2021-10-27 11:03:00,,0821.4,5.00,0.00,23.7,22.8,00.0,32.7,25.5,10.3,0000.0,0000.98,0003.53,0000.74
2021-10-27 11:04:00,,0821.4,5.00,0.00,23.7,22.9,00.0,32.7,25.5,10.4,0000.0,0000.96,0003.48,0000.74
2021-10-27 11:05:00,,0821.3,4.99,0.00,23.7,22.9,00.0,32.7,25.5,10.5,0000.0,0000.95,0003.03,0000.74
2021-10-27 11:06:00,,0821.4,5.00,0.00,23.7,22.9,00.0,32.7,25.5,10.4,0000.0,0000.92,0002.70,0000.75
2021-10-27 11:07:00,,0821.4,5.00,0.00,23.7,22.9,00.0,32.7,25.5,10.5,0000.0,0000.90,0002.66,0000.76
2021-10-27 11:08:00,,0821.4,4.99,0.00,23.7,22.9,00.0,32.8,25.5,10.6,0000.0,0000.92,0002.70,0000.77
2021-10-27 11:09:00,,0821.4,5.01,0.00,23.7,22.9,00.0,32.8,25.5,10.8,0000.0,0000.95,0002.72,0000.77
2021-10-27 11:10:00,,0821.4,5.00,0.00,23.7,22.9,00.0,32.8,25.5,10.5,0000.0,0000.97,0002.71,0000.78
2021-10-27 11:11:00,,0821.3,4.99,0.00,23.7,22.9,00.0,32.8,25.5,10.2,0000.0,0001.00,0002.79,0000.79
2021-10-27 11:12:00,,0821.3,5.01,0.00,23.7,22.9,00.0,32.8,25.5,10.0,0000.0,0000.99,0002.75,0000.79
2021-10-27 11:13:00,,0821.3,5.02,0.00,23.7,22.9,00.0,32.8,25.5,10.1,0000.0,0000.96,0002.70,0000.78
2021-10-27 11:14:00,,0821.3,4.99,0.00,23.7,22.9,00.0,32.8,25.5,10.1,0000.0,0000.96,0002.63,0000.78
2021-10-27 11:15:00,,0821.4,5.00,0.00,23.7,22.9,00.0,32.8,25.5,10.1,0000.0,0000.95,0002.29,0000.78
2021-10-27 11:16:00,,0821.3,5.01,0.00,23.7,22.8,00.0,32.8,25.5,10.1,0000.0,0000.93,0002.15,0000.77
2021-10-27 11:17:00,,0821.4,5.00,0.00,23.7,22.8,00.0,32.8,25.4,10.2,0000.0,0000.91,0001.35,0000.77
2021-10-27 11:18:00,,0821.4,5.00,0.00,23.7,22.8,00.0,32.8,25.5,10.4,0000.0,0000.92,0001.37,0000.75
2021-10-27 11:19:00,,0821.4,5.00,0.00,23.7,22.9,00.0,32.8,25.5,10.5,0000.0,0000.89,0001.34,0000.74
2021-10-27 11:20:00,,0821.4,5.01,0.00,23.7,22.9,00.0,32.8,25.5,10.6,0000.0,0000.87,0002.88,0000.74
2021-10-27 11:21:00,,0821.4,5.00,0.00,23.7,22.9,00.0,32.8,25.6,10.4,0000.0,0000.86,0002.87,0000.73
2021-10-27 11:22:00,,0821.5,4.99,0.00,23.7,22.9,00.0,32.8,25.5,10.2,0000.0,0000.86,0002.88,0000.73
2021-10-27 11:23:00,,0821.5,5.01,0.00,23.8,22.9,00.0,32.8,25.5,10.3,0000.0,0000.86,0002.90,0000.72
2021-10-27 11:24:00,,0821.7,5.01,0.00,23.7,22.9,00.0,32.8,25.5,10.3,0000.0,0000.88,0003.05,0000.72
2021-10-27 11:25:00,,0821.7,4.99,0.00,23.7,22.9,00.0,32.8,25.5,10.4,0000.0,0000.90,0003.11,0000.73
2021-10-27 11:26:00,,0821.6,5.00,0.00,23.7,22.9,00.0,32.8,25.5,10.1,0000.0,0000.90,0003.17,0000.72
2021-10-27 11:27:00,,0821.7,4.99,0.00,23.7,22.8,00.0,32.8,25.5,10.3,0000.0,0000.91,0003.69,0000.72
2021-10-27 11:28:00,,0821.8,5.00,0.00,23.7,22.8,00.0,32.8,25.5,10.6,0000.0,0000.92,0003.71,0000.73
2021-10-27 11:29:00,,0821.7,5.00,0.00,23.7,22.9,00.0,32.8,25.5,10.5,0000.0,0000.90,0003.71,0000.73
2021-10-27 11:30:00,,0821.7,5.00,0.00,23.7,22.9,00.0,32.8,25.5,10.1,0000.0,0000.90,0003.64,0000.73
2021-10-27 11:31:00,,0821.6,4.99,0.00,23.7,22.9,00.0,32.8,25.5,10.0,0000.0,0000.89,0002.09,0000.71
2021-10-27 11:32:00,,0821.5,5.01,0.00,23.7,22.9,00.0,32.8,25.5,10.0,0000.0,0000.89,0002.28,0000.71
2021-10-27 11:33:00,,0821.6,5.01,0.00,23.7,22.8,00.0,32.8,25.4,10.0,0000.0,0000.89,0002.98,0000.70
2021-10-27 11:34:00,,0821.6,5.00,0.00,23.7,22.8,00.0,32.8,25.4,09.9,0000.0,0000.88,0002.96,0000.69
2021-10-27 11:35:00,,0821.6,4.99,0.00,23.7,22.8,00.0,32.8,25.5,10.0,0000.0,0000.85,0002.82,0000.68
2021-10-27 11:36:00,,0821.6,5.01,0.00,23.7,22.8,00.0,32.8,25.4,10.0,0000.0,0000.84,0002.89,0000.67
2021-10-27 11:37:00,,0821.6,5.00,0.00,23.7,22.8,00.0,32.8,25.4,10.0,0000.0,0000.86,0002.93,0000.67
2021-10-27 11:38:00,,0821.5,4.99,0.00,23.7,22.7,00.0,32.8,25.4,09.9,0000.0,0000.87,0002.52,0000.68
2021-10-27 11:39:00,,0821.5,4.99,0.00,23.7,22.7,00.0,32.8,25.4,09.8,0000.0,0000.84,0002.36,0000.67
2021-10-27 11:40:00,,0821.6,5.00,0.00,23.7,22.7,00.0,32.8,25.3,09.8,0000.0,0000.82,0002.30,0000.65
2021-10-27 11:41:00,,0821.6,5.00,0.00,23.6,22.7,00.0,32.8,25.3,09.8,0000.0,0000.82,0002.29,0000.65
2021-10-27 11:42:00,,0821.5,5.00,0.00,23.6,22.7,00.0,32.8,25.3,09.7,0000.0,0000.83,0002.41,0000.64
2021-10-27 11:43:00,,0821.6,5.00,0.00,23.6,22.7,00.0,32.8,25.3,09.7,0000.0,0000.84,0002.38,0000.65
2021-10-27 11:44:00,,0821.7,4.99,0.00,23.6,22.6,00.0,32.8,25.2,09.8,0000.0,0000.81,0001.58,0000.64
2021-10-27 11:45:00,,0821.6,5.01,0.00,23.6,22.5,00.0,32.8,25.2,09.8,0000.0,0000.81,0001.52,0000.64
2021-10-27 11:46:00,,0821.7,5.00,0.00,23.5,22.5,00.0,32.8,25.2,09.9,0000.0,0000.81,0001.68,0000.64
2021-10-27 11:47:00,,0821.7,5.00,0.00,23.6,22.5,00.0,32.8,25.2,09.9,0000.0,0000.80,0001.65,0000.64
2021-10-27 11:48:00,,0821.7,5.00,0.00,23.6,22.5,00.0,32.7,25.2,10.0,0000.0,0000.77,0001.57,0000.62
2021-10-27 11:49:00,,0821.7,4.99,0.00,23.6,22.5,00.0,32.7,25.2,09.9,0000.0,0000.75,0001.55,0000.61
2021-10-27 11:50:00,,0821.7,5.00,0.00,23.6,22.5,00.0,32.7,25.2,09.9,0000.0,0000.74,0001.57,0000.61
2021-10-27 11:51:00,,0821.7,5.01,0.00,23.6,22.5,00.0,32.7,25.3,09.9,0000.0,0000.76,0001.64,0000.61
2021-10-27 11:52:00,,0821.7,5.01,0.00,23.6,22.6,00.0,32.7,25.3,09.8,0000.0,0000.79,0001.77,0000.61
2021-10-27 11:53:00,,0821.8,5.00,0.00,23.6,22.6,00.0,32.7,25.3,09.8,0000.0,0000.79,0001.68,0000.61
2021-10-27 11:54:00,,0821.8,4.99,0.00,23.6,22.6,00.0,32.7,25.3,09.8,0000.0,0000.78,0001.65,0000.61
2021-10-27 11:55:00,,0821.7,5.01,0.00,23.6,22.6,00.0,32.7,25.3,09.7,0000.0,0000.77,0001.60,0000.61
2021-10-27 11:56:00,,0821.7,4.99,0.00,23.6,22.6,00.0,32.7,25.3,09.6,0000.0,0000.76,0001.60,0000.61
2021-10-27 11:57:00,,0821.6,5.00,0.00,23.6,22.6,00.0,32.7,25.3,09.6,0000.0,0000.76,0001.48,0000.60
2021-10-27 11:58:00,,0821.5,5.01,0.00,23.6,22.6,00.0,32.7,25.3,09.7,0000.0,0000.75,0001.37,0000.59
2021-10-27 11:59:00,,0821.6,4.98,0.00,23.6,22.6,00.0,32.7,25.3,09.7,0000.0,0000.77,0001.39,0000.60
